Regional Weather Roundup
Issued by NWS

Home | Current Version | Previous Version | Graphics & Text | Print | Product List | Glossary On
Versions: 1 2 3 4 5 6 7 8 9 10 11 12 13 14 15 16 17 18 19 20 21 22 23 24 25 26 27 28 29 30 31 32 33 34 35 36 37 38 39 40 41 42 43 44 45 46 47 48 49 50
000
ASUS45 KTFX 280504
RWRMT
MONTANA REGIONAL WEATHER ROUNDUP
NATIONAL WEATHER SERVICE GREAT FALLS MT
1100 PM MDT THU AUG 27 2015

NOTE: "FAIR" INDICATES FEW OR NO CLOUDS BELOW 12000 FEET WITH NO
SIGNIFICANT WEATHER AND/OR OBSTRUCTIONS TO VISIBILITY.

MTZ001>007-043-280600-
WEST OF THE DIVIDE

CITY           SKY/WX    TMP DP  RH WIND       PRES   REMARKS
KALISPELL      CLOUDY    60  41  49 CALM      30.01R SMOKE
MISSOULA       CLOUDY    66  40  38 CALM      30.07R HAZE
BUTTE          CLOUDY    58  48  69 S6        30.24R
MULLAN PASS    CLEAR     62  35  36 VRB6      30.23S
DEER LODGE       N/A     64  41  42 S3        30.19R
EUREKA           N/A     73  39  29 E3        29.99S
HAMILTON         N/A     68  43  40 S7        30.10R
LIBBY            N/A     66  41  39 CALM      30.00S
$$

MTZ008-052>055-280600-
SOUTHWEST MONTANA

CITY           SKY/WX    TMP DP  RH WIND       PRES   REMARKS
BOZEMAN        PTCLDY    68  47  46 W7        30.19R
DILLON         CLEAR     58  46  64 W5        30.18R
W YELLOWSTONE  MOCLDY    50  43  76 CALM      30.33S
$$

MTZ009-010-012-014-046-048-049-054-280600-
EAST SLOPES AND CENTRAL MONTANA

CITY           SKY/WX    TMP DP  RH WIND       PRES   REMARKS
CUT BANK       CLOUDY    62  39  42 W12       30.00S HAZE
GREAT FALLS    CLOUDY    65  32  29 NW5       30.01R HAZE
MALMSTROM AFB  MOCLDY    69  38  32 SW9       30.00R
HELENA         CLOUDY    72  41  32 CALM      30.09R SMOKE
$$

MTZ011-013-016-021-045-047-050-051-280600-
NORTH CENTRAL MONTANA

CITY           SKY/WX    TMP DP  RH WIND       PRES   REMARKS
HAVRE          CLOUDY    64  46  52 W5        29.91R
LEWISTOWN      CLOUDY    60  48  64 E5        30.04S
N BAR RANCH      N/A     61  43  51 NW6       30.08S
CHINOOK          N/A     64  54  68 CALM      29.89S
FORT BENTON      N/A     72  43  35 S5        29.95S
$$

MTZ017>020-022>027-061-062-280600-
NORTHEAST MONTANA

CITY           SKY/WX    TMP DP  RH WIND       PRES   REMARKS
GLASGOW        CLEAR     71  56  58 W5        29.88R
JORDAN           N/A     66  45  46 CALM      29.92S
SIDNEY         PTCLDY    66  61  82 S3        29.87S
WOLF POINT     CLEAR     66  54  65 CALM      29.86S
PLENTYWOOD       N/A     79  57  47 SW10G21   29.85F
POPLAR           N/A     72  57  60 CALM      29.86S
$$

MTZ028>42-056>058-280600-
SOUTHCENTRAL AND SOUTHEAST MONTANA

CITY           SKY/WX    TMP DP  RH WIND       PRES   REMARKS
BAKER          MOCLDY    61  56  83 SE3       29.96F
BILLINGS       MOCLDY    71  44  37 SW16      30.05S
LIVINGSTON     PTCLDY    68  43  40 W20       30.13R
MILES CITY     MOCLDY    71  46  40 W6        29.94R
FORSYTH          N/A     79  45  29 SW8       29.95S
$$

REGIONAL REPORTS...DAKOTAS

CITY           SKY/WX    TMP DP  RH WIND       PRES   REMARKS
WILLISTON      PTCLDY    71  63  75 CALM      29.86S
MINOT          PTCLDY    69  61  75 SW5       29.85S
DICKINSON      PTCLDY    65  57  75 S10       29.92S
BISMARCK       MOCLDY    67  61  81 SW5       29.91F
GRAND FORKS    CLEAR     66  64  93 S6        29.86F
FARGO          CLEAR     70  65  84 S7        29.89F
BUFFALO SD       N/A     65  58  78 SE7       29.92S
RAPID CITY     MOCLDY    61  59  93 SE5       30.02R
$$

REGIONAL REPORTS...WYOMING/IDAHO/WASHINGTON

CITY           SKY/WX    TMP DP  RH WIND       PRES   REMARKS
GILLETTE       PTCLDY    68  46  45 W13       30.09R
SHERIDAN       CLOUDY    74  41  30 W14       30.08S
BUFFALO WY     CLOUDY    67  45  45 W8        30.16R
CODY           CLOUDY    66  43  42 W7        30.19S
YELLOWSTONE LA   N/A     43  41  93 W3        30.44S
IDAHO FALLS    CLEAR     69  41  36 S10       30.15R
SALMON         CLOUDY    72  41  33 CALM      30.11R
BOISE          PTCLDY    76  37  24 CALM      30.01S
SPOKANE        MOCLDY    78  39  24 SW12      29.99S
$$

REGIONAL REPORTS...ALBERTA

CITY           SKY/WX    TMP DP  RH WIND       PRES   REMARKS
$$

REGIONAL REPORTS...SASKATCHEWAN

CITY           SKY/WX    TMP DP  RH WIND       PRES   REMARKS
$$



USA.gov is the U.S. government's official web portal to all federal, state and local government web resources and services.